User: anonymous   Login
Location: Ostrava
(49.8330°N, 18.2830°E)
Time: 18:40:52
(UTC+01:00)
Language:

Lacrosse 5 - Orbit

View from above orbital plane
View from above orbital plane
View from above satellite
View from above satellite

Ground track
Ground track

The orbit data is extracted from the following two-line orbital elements,

1 28646U 05016A   15024.27884363 0.00000000  00000-0  00000-0 0    04
2 28646  57.0090 151.3722 0006000  71.1921 288.8078 14.52012641    04
Epoch (UTC): 24 January 2015 06:41:32
Eccentricity: 0.0006000
inclination: 57.0090°
perigee height: 715 km
apogee height: 723 km
right ascension of ascending node: 151.3722°
argument of perigee: 71.1921°
revolutions per day: 14.52012641
mean anomaly at epoch: 288.8078°
orbit number at epoch: 0

The dashed part of the orbit path shows where the satellite is in the earth's shadow,  

DLR